Time,TemperatureF,DewpointF,PressureIn,WindDirection,WindDirectionDegrees,WindSpeedMPH,WindSpeedGustMPH,Humidity,HourlyPrecipIn,Conditions,Clouds,dailyrainin,SoftwareType,DateUTC
2013-06-03 00:02:00,59.0,54.0,30.03,NNW,339,2.0,5.0,84,0.00,,,0.03,,2013-06-03 05:02:00,
2013-06-03 00:52:00,57.0,54.0,30.04,ENE,60,3.0,10.0,89,0.00,,,0.03,,2013-06-03 05:52:00,
2013-06-03 01:02:00,57.0,54.0,30.04,ENE,60,3.0,10.0,89,0.00,,,0.03,,2013-06-03 06:02:00,
2013-06-03 01:12:00,57.0,54.0,30.04,ENE,60,3.0,10.0,89,0.00,,,0.03,,2013-06-03 06:12:00,
2013-06-03 01:22:00,57.0,54.0,30.04,ENE,60,3.0,10.0,89,0.00,,,0.03,,2013-06-03 06:22:00,
2013-06-03 01:32:00,57.0,54.0,30.04,ENE,60,3.0,10.0,89,0.00,,,0.03,,2013-06-03 06:32:00,
2013-06-03 02:22:00,55.0,52.0,30.03,North,4,2.0,6.0,90,0.00,,,0.03,,2013-06-03 07:22:00,
2013-06-03 02:32:00,55.0,52.0,30.03,North,4,2.0,6.0,90,0.00,,,0.03,,2013-06-03 07:32:00,
2013-06-03 02:42:00,55.0,52.0,30.03,North,4,2.0,6.0,90,0.00,,,0.03,,2013-06-03 07:42:00,
2013-06-03 02:52:00,55.0,52.0,30.03,NE,48,1.0,6.0,90,-99.99,,,-99.99,,2013-06-03 07:52:00,
2013-06-03 03:02:00,55.0,52.0,30.03,NE,48,1.0,6.0,90,-99.99,,,-99.99,,2013-06-03 08:02:00,
2013-06-03 03:12:00,55.0,52.0,30.03,NE,48,1.0,6.0,90,-99.99,,,-99.99,,2013-06-03 08:12:00,
2013-06-03 03:22:00,55.0,52.0,30.03,NE,48,0.0,3.0,89,0.00,,,0.03,,2013-06-03 08:22:00,
2013-06-03 03:32:00,55.0,52.0,30.03,NE,48,0.0,3.0,89,0.00,,,0.03,,2013-06-03 08:32:00,
2013-06-03 03:42:00,55.0,52.0,30.03,NE,48,0.0,3.0,89,0.00,,,0.03,,2013-06-03 08:42:00,
2013-06-03 03:52:00,55.0,51.0,30.03,NE,46,2.0,6.0,87,0.00,,,0.03,,2013-06-03 08:52:00,
2013-06-03 04:02:00,55.0,51.0,30.03,NE,46,2.0,6.0,87,0.00,,,0.03,,2013-06-03 09:02:00,
2013-06-03 04:12:00,55.0,51.0,30.03,NE,46,2.0,6.0,87,0.00,,,0.03,,2013-06-03 09:12:00,
2013-06-03 04:22:00,55.0,51.0,30.03,NE,46,1.0,4.0,86,0.00,,,0.03,,2013-06-03 09:22:00,
2013-06-03 04:33:00,55.0,51.0,30.03,NE,46,1.0,4.0,86,0.00,,,0.03,,2013-06-03 09:33:00,
2013-06-03 04:43:00,55.0,51.0,30.03,NE,46,1.0,4.0,86,0.00,,,0.03,,2013-06-03 09:43:00,
2013-06-03 04:53:00,55.0,51.0,30.03,NE,46,1.0,4.0,86,0.00,,,0.03,,2013-06-03 09:53:00,
2013-06-03 05:03:00,55.0,51.0,30.03,NE,46,1.0,4.0,86,0.00,,,0.03,,2013-06-03 10:03:00,
2013-06-03 06:22:00,54.0,48.0,30.07,NE,45,2.0,6.0,81,0.00,,,0.03,,2013-06-03 11:22:00,
2013-06-03 06:32:00,54.0,48.0,30.07,NE,45,2.0,6.0,81,0.00,,,0.03,,2013-06-03 11:32:00,
2013-06-03 06:42:00,54.0,48.0,30.07,NE,45,2.0,6.0,81,0.00,,,0.03,,2013-06-03 11:42:00,
2013-06-03 06:52:00,54.0,48.0,30.08,East,90,4.0,10.0,79,0.00,,,0.03,,2013-06-03 11:52:00,
2013-06-03 07:02:00,54.0,48.0,30.08,East,90,4.0,10.0,79,0.00,,,0.03,,2013-06-03 12:02:00,
2013-06-03 07:12:00,54.0,48.0,30.08,East,90,4.0,10.0,79,0.00,,,0.03,,2013-06-03 12:12:00,
2013-06-03 07:22:00,54.0,48.0,30.08,ENE,66,1.0,5.0,80,0.00,,,0.03,,2013-06-03 12:22:00,
2013-06-03 07:32:00,54.0,48.0,30.08,ENE,66,1.0,5.0,80,0.00,,,0.03,,2013-06-03 12:32:00,
2013-06-03 07:42:00,54.0,48.0,30.08,ENE,66,1.0,5.0,80,0.00,,,0.03,,2013-06-03 12:42:00,
2013-06-03 07:52:00,54.0,48.0,30.08,ENE,66,1.0,5.0,80,0.00,,,0.03,,2013-06-03 12:52:00,
2013-06-03 08:02:00,54.0,48.0,30.08,ENE,66,1.0,5.0,80,0.00,,,0.03,,2013-06-03 13:02:00,
2013-06-03 08:53:00,56.0,48.0,30.12,East,82,0.0,3.0,75,0.00,,,0.03,,2013-06-03 13:53:00,
2013-06-03 09:02:00,56.0,48.0,30.12,East,82,0.0,3.0,75,0.00,,,0.03,,2013-06-03 14:02:00,
2013-06-03 09:12:00,56.0,48.0,30.12,East,82,0.0,3.0,75,0.00,,,0.03,,2013-06-03 14:12:00,
2013-06-03 09:22:00,56.0,48.0,30.12,East,82,0.0,3.0,75,0.00,,,0.03,,2013-06-03 14:22:00,
2013-06-03 09:32:00,56.0,48.0,30.12,East,82,0.0,3.0,75,0.00,,,0.03,,2013-06-03 14:32:00,
2013-06-03 09:52:00,58.0,47.0,30.12,NNW,328,4.0,7.0,68,0.00,,,0.03,,2013-06-03 14:52:00,
2013-06-03 10:02:00,58.0,47.0,30.12,NNW,328,4.0,7.0,68,0.00,,,0.03,,2013-06-03 15:02:00,
2013-06-03 10:12:00,58.0,47.0,30.12,NNW,328,4.0,7.0,68,0.00,,,0.03,,2013-06-03 15:12:00,
2013-06-03 10:22:00,60.0,49.0,30.11,NNE,27,3.0,5.0,66,0.00,,,0.03,,2013-06-03 15:22:00,
2013-06-03 10:33:00,60.0,49.0,30.11,NNE,27,3.0,5.0,66,0.00,,,0.03,,2013-06-03 15:33:00,
2013-06-03 10:43:00,60.0,49.0,30.11,NNE,27,3.0,5.0,66,0.00,,,0.03,,2013-06-03 15:43:00,
2013-06-03 10:53:00,61.0,50.0,30.11,NNW,346,1.0,8.0,67,0.00,,,0.03,,2013-06-03 15:53:00,
2013-06-03 11:03:00,61.0,50.0,30.11,NNW,346,1.0,8.0,67,0.00,,,0.03,,2013-06-03 16:03:00,
2013-06-03 11:13:00,61.0,50.0,30.11,NNW,346,1.0,8.0,67,0.00,,,0.03,,2013-06-03 16:13:00,
2013-06-03 11:23:00,61.0,50.0,30.11,NNW,346,1.0,8.0,67,0.00,,,0.03,,2013-06-03 16:23:00,
2013-06-03 11:33:00,61.0,50.0,30.11,NNW,346,1.0,8.0,67,0.00,,,0.03,,2013-06-03 16:33:00,
2013-06-03 11:42:00,61.0,47.0,30.09,NNE,25,3.0,8.0,61,-99.99,,,-99.99,,2013-06-03 16:42:00,
2013-06-03 11:53:00,61.0,47.0,30.09,NNE,25,3.0,8.0,61,-99.99,,,-99.99,,2013-06-03 16:53:00,
2013-06-03 12:02:00,61.0,47.0,30.09,NNE,25,3.0,8.0,61,-99.99,,,-99.99,,2013-06-03 17:02:00,
2013-06-03 12:12:00,61.0,47.0,30.09,NNE,25,3.0,8.0,61,-99.99,,,-99.99,,2013-06-03 17:12:00,
2013-06-03 12:22:00,62.0,48.0,30.09,NNW,327,3.0,7.0,61,0.00,,,0.03,,2013-06-03 17:22:00,
2013-06-03 12:33:00,62.0,48.0,30.09,NNW,327,3.0,7.0,61,0.00,,,0.03,,2013-06-03 17:33:00,
2013-06-03 12:42:00,62.0,48.0,30.09,NNW,327,3.0,7.0,61,0.00,,,0.03,,2013-06-03 17:42:00,
2013-06-03 12:52:00,62.0,48.0,30.09,NNW,327,3.0,7.0,61,0.00,,,0.03,,2013-06-03 17:52:00,
2013-06-03 13:02:00,62.0,48.0,30.09,NNW,327,3.0,7.0,61,0.00,,,0.03,,2013-06-03 18:02:00,
2013-06-03 13:12:00,63.0,46.0,30.09,NNE,19,2.0,7.0,54,0.00,,,0.03,,2013-06-03 18:12:00,
2013-06-03 13:22:00,63.0,46.0,30.09,NNE,19,2.0,7.0,54,0.00,,,0.03,,2013-06-03 18:22:00,
2013-06-03 13:32:00,63.0,46.0,30.09,NNE,19,2.0,7.0,54,0.00,,,0.03,,2013-06-03 18:32:00,
2013-06-03 13:43:00,63.0,46.0,30.09,NNE,19,2.0,7.0,54,0.00,,,0.03,,2013-06-03 18:43:00,
2013-06-03 13:52:00,64.0,47.0,30.07,WNW,291,4.0,8.0,55,0.00,,,0.03,,2013-06-03 18:52:00,
2013-06-03 14:03:00,64.0,47.0,30.07,WNW,291,4.0,8.0,55,0.00,,,0.03,,2013-06-03 19:03:00,
2013-06-03 14:12:00,64.0,47.0,30.07,WNW,291,4.0,8.0,55,0.00,,,0.03,,2013-06-03 19:12:00,
2013-06-03 14:22:00,64.0,49.0,30.06,NW,321,2.0,6.0,59,0.00,,,0.03,,2013-06-03 19:22:00,
2013-06-03 14:32:00,64.0,49.0,30.06,NW,321,2.0,6.0,59,0.00,,,0.03,,2013-06-03 19:32:00,
2013-06-03 14:42:00,64.0,49.0,30.06,NW,321,2.0,6.0,59,0.00,,,0.03,,2013-06-03 19:42:00,
2013-06-03 14:52:00,64.0,49.0,30.06,NW,321,2.0,6.0,59,0.00,,,0.03,,2013-06-03 19:52:00,
2013-06-03 15:02:00,64.0,49.0,30.06,NW,321,2.0,6.0,59,0.00,,,0.03,,2013-06-03 20:02:00,
2013-06-03 16:12:00,68.0,48.0,30.03,NNW,329,3.0,6.0,48,0.00,,,0.00,,2013-06-03 21:12:00,
2013-06-03 16:22:00,68.0,48.0,30.03,NNW,329,3.0,6.0,48,0.00,,,0.00,,2013-06-03 21:22:00,
2013-06-03 16:33:00,68.0,48.0,30.03,NNW,329,3.0,6.0,48,0.00,,,0.00,,2013-06-03 21:33:00,
2013-06-03 16:43:00,68.0,48.0,30.03,NNW,329,3.0,6.0,48,0.00,,,0.00,,2013-06-03 21:43:00,
2013-06-03 16:53:00,68.0,48.0,30.03,East,79,1.0,7.0,48,0.00,,,0.00,,2013-06-03 21:53:00,
2013-06-03 17:03:00,68.0,48.0,30.03,East,79,1.0,7.0,48,0.00,,,0.00,,2013-06-03 22:03:00,
2013-06-03 17:12:00,68.0,48.0,30.03,East,79,1.0,7.0,48,0.00,,,0.00,,2013-06-03 22:12:00,
2013-06-03 17:22:00,68.0,48.0,30.03,East,79,1.0,7.0,48,0.00,,,0.00,,2013-06-03 22:22:00,
2013-06-03 17:32:00,68.0,48.0,30.03,East,79,1.0,7.0,48,0.00,,,0.00,,2013-06-03 22:32:00,
2013-06-03 17:53:00,68.0,48.0,30.03,ENE,69,3.0,9.0,48,0.00,,,0.00,,2013-06-03 22:53:00,
2013-06-03 18:02:00,68.0,48.0,30.03,ENE,69,3.0,9.0,48,0.00,,,0.00,,2013-06-03 23:02:00,
2013-06-03 18:12:00,68.0,48.0,30.03,ENE,69,3.0,9.0,48,0.00,,,0.00,,2013-06-03 23:12:00,
2013-06-03 18:22:00,68.0,48.0,30.03,ENE,69,3.0,9.0,48,0.00,,,0.00,,2013-06-03 23:22:00,
2013-06-03 18:32:00,68.0,48.0,30.03,ENE,69,3.0,9.0,48,0.00,,,0.00,,2013-06-03 23:32:00,
2013-06-03 19:22:00,66.0,49.0,30.03,NE,46,2.0,5.0,55,0.00,,,0.00,,2013-06-04 00:22:00,
2013-06-03 19:32:00,66.0,49.0,30.03,NE,46,2.0,5.0,55,0.00,,,0.00,,2013-06-04 00:32:00,
2013-06-03 19:42:00,66.0,49.0,30.03,NE,46,2.0,5.0,55,0.00,,,0.00,,2013-06-04 00:42:00,
2013-06-03 19:52:00,65.0,50.0,30.03,NE,44,1.0,5.0,58,0.00,,,0.00,,2013-06-04 00:52:00,
2013-06-03 20:02:00,65.0,50.0,30.03,NE,44,1.0,5.0,58,0.00,,,0.00,,2013-06-04 01:02:00,
2013-06-03 20:12:00,65.0,50.0,30.03,NE,44,1.0,5.0,58,0.00,,,0.00,,2013-06-04 01:12:00,
2013-06-03 20:22:00,64.0,50.0,30.03,ENE,65,1.0,4.0,60,0.00,,,0.00,,2013-06-04 01:22:00,
2013-06-03 20:32:00,64.0,50.0,30.03,ENE,65,1.0,4.0,60,0.00,,,0.00,,2013-06-04 01:32:00,
2013-06-03 20:42:00,64.0,50.0,30.03,ENE,65,1.0,4.0,60,0.00,,,0.00,,2013-06-04 01:42:00,
2013-06-03 20:52:00,64.0,50.0,30.03,ENE,65,1.0,4.0,60,0.00,,,0.00,,2013-06-04 01:52:00,
2013-06-03 21:02:00,64.0,50.0,30.03,ENE,65,1.0,4.0,60,0.00,,,0.00,,2013-06-04 02:02:00,
2013-06-03 23:23:00,59.0,52.0,30.07,ENE,58,0.0,2.0,77,0.00,,,0.00,,2013-06-04 04:23:00,
2013-06-03 23:33:00,59.0,52.0,30.07,ENE,58,0.0,2.0,77,0.00,,,0.00,,2013-06-04 04:33:00,
2013-06-03 23:42:00,59.0,52.0,30.07,ENE,58,0.0,2.0,77,0.00,,,0.00,,2013-06-04 04:42:00,
2013-06-03 23:53:00,59.0,52.0,30.07,ENE,58,0.0,2.0,77,0.00,,,0.00,,2013-06-04 04:53:00,